Find Starlink 32709

NORAD ID: 62439 Int'l Des: 2024-251 Owner: SPXS Country: US Constellation: starlink operational
LEOCIRCULAR

現在のビュー

3D地球を読み込み中...

About Starlink 32709

Starlink 32709 (NORAD 62439) is a starlink constellation satellite (v2 mini) launched Dec 29, 2024 by SPXS of US. It operates in LEO, CIRCULAR orbit with a mass of 730.00 kg.

Starlink 32709について

説明を読み込み中...

次回通過

Passes for default location (London). Set your location on the main map for personalized predictions.

高度履歴

Loading altitude history...

軌道要素

1 62439U 24251H 26169.43766913 .00024799 00000-0 74245-3 0 9997
2 62439 53.1584 227.3256 0001292 100.4564 259.6584 15.34408805 83371
Epoch: Jun 18, 2026 • Age: 25 hours

現在のステータス

高度 467.9 km
速度 7.64 km/s
衛星直下点 51.38°N, 154.22°W
打ち上げ日 Dec 29, 2024
運用期間 1.4 years
タイプ internet

技術仕様

分類 Payload
質量 730.00 kg
乾燥質量 700.00 kg
総質量 730.00 kg
長さ 0.30 m
直径 4.10 m
スパン 29.00 m
形状 Box + pan
製造者 SPXS
バスタイプ Starlink V2M
フェーズステータス In Orbit
所有者/国 SPXS/US

Most Searched